Location: Buisson
(44.2787°N, 4.9969°E)
Time: 07:10:10
(UTC+00:00)

Okean 1-7 - Pass Details

Date: 18 April 2021
Orbit: 590 x 619 km, 82.5° (Epoch: 05 May)

Event Time Altitude Azimuth Distance (km) Brightness Sun altitude
Exits shadow 03:08:28 29° 271° (W) 1,102 3.9 -17.4°
Maximum altitude 03:09:00 30° 285° (WNW) 1,078 3.9 -17.3°
Drops below altitude 10° 03:12:47 10° 348° (NNW) 1,935 5.9 -16.7°
Sets 03:15:13 0° 359° (N) 2,839 6.9 -16.4°
